Scottsbluff, NE

5:12 PM MDT on April 25, 2017 (GMT -0600)
Heilig

Weather History for KBFF - October, 2012

Change the Weather History Date:

Tuesday, October 9, 2012

  Actual Average Record
Temperature  
Mean Temperature 41 °F 51 °F  
Max Temperature 51 °F 67 °F 92 °F (1910)
Min Temperature 30 °F 35 °F 18 °F (1970)
Degree Days  
Heating Degree Days 24 14  
Month to date heating degree days 168 112  
Since 1 July heating degree days 244 291  
Cooling Degree Days 0 0  
Month to date cooling degree days 0 0  
Year to date cooling degree days 1208 723  
Moisture  
Dew Point 33 °F    
Average Humidity 66    
Maximum Humidity 92    
Minimum Humidity 39    
Precipitation  
Precipitation 0.00 in 0.04 in 0.68 in (1909)
Month to date precipitation 0.31 0.36  
Year to date precipitation 5.95 13.84  
Snow  
Snow 0.00 in 0.10 in 3.30 in (2009)
Month to date snowfall 4.7 0.5  
Since 1 July snowfall 4.7 1.0  
Snow Depth 0.00 in    
Sea Level Pressure  
Sea Level Pressure 30.09 in    
Wind  
Wind Speed 6 mph (North)    
Max Wind Speed 16 mph    
Max Gust Speed 21 mph    
Visibility 10 miles    
Events      
T = Trace of Precipitation, MM = Missing Value Source: NWS Daily Summary

Daily Weather History Graph

Daily Weather History Graph

Search for Another Location

Airport or City:

Trip Planner

Search our weather history database for the weather conditions in past years. The results will help you decide how hot, cold, wet, or windy it might be!

Date:

Astronomy

Oct. 09, 2012 Rise Set
Actual Time 7:00 AM MDT 6:21 PM MDT
Civil Twilight 6:32 AM MDT 6:49 PM MDT
Nautical Twilight 6:00 AM MDT 7:21 PM MDT
Astronomical Twilight 5:28 AM MDT 7:54 PM MDT
Moon 12:34 AM MDT (10/9) 2:55 PM MDT (10/9)
Length of Visible Light 12h 16m
Length of Day
11h 21m
Last Quarter, 36% of the Moon is Illuminated
Oct 9
Last Quarter
Oct 15
New
Oct 21
First Quarter
Oct 29
Full
Nov 6
Last Quarter

Hourly Weather History & Observations

Time (MDT) Temp. Windchill Dew Point Humidity Pressure Visibility Wind Dir Wind Speed Gust Speed Precip Events Conditions
12:53 AM 46.9 °F - 39.0 °F 74% 29.86 in 10.0 mi NE 8.1 mph - N/A   Clear
1:53 AM 44.6 °F 43.1 °F 39.2 °F 81% 29.94 in 10.0 mi North 3.5 mph - N/A   Clear
2:53 AM 42.8 °F 40.1 °F 37.4 °F 81% 29.95 in 10.0 mi North 4.6 mph - N/A   Clear
3:53 AM 39.9 °F 35.8 °F 37.0 °F 89% 29.91 in 10.0 mi North 5.8 mph - N/A   Clear
4:32 AM 42.8 °F 41.1 °F 39.2 °F 87% 29.98 in 10.0 mi NW 3.5 mph - N/A   Mostly Cloudy
4:53 AM 43.0 °F 38.2 °F 39.0 °F 86% 29.92 in 10.0 mi NNW 8.1 mph - N/A   Overcast
5:42 AM 44.6 °F 39.7 °F 37.4 °F 76% 30.01 in 10.0 mi NNW 9.2 mph - N/A   Overcast
5:53 AM 44.1 °F 38.1 °F 37.0 °F 76% 29.96 in 10.0 mi North 11.5 mph - N/A   Overcast
6:53 AM 44.1 °F 39.5 °F 37.0 °F 76% 30.01 in 10.0 mi North 8.1 mph - N/A   Overcast
7:15 AM 42.8 °F 37.0 °F 35.6 °F 76% 30.04 in 10.0 mi North 10.4 mph - N/A   Overcast
7:53 AM 41.0 °F 33.9 °F 36.0 °F 82% 30.05 in 10.0 mi NNE 12.7 mph - N/A   Overcast
8:08 AM 39.2 °F 32.5 °F 35.6 °F 87% 30.08 in 10.0 mi NNE 10.4 mph - N/A   Overcast
8:45 AM 37.4 °F 29.8 °F 32.0 °F 81% 30.10 in 10.0 mi NE 11.5 mph - N/A   Overcast
8:53 AM 37.9 °F 30.9 °F 33.1 °F 83% 30.11 in 10.0 mi NE 10.4 mph - N/A   Overcast
9:20 AM 37.4 °F 31.4 °F 33.8 °F 87% 30.11 in 10.0 mi NE 8.1 mph - N/A   Overcast
9:53 AM 37.9 °F 31.5 °F 32.0 °F 79% 30.14 in 10.0 mi NNE 9.2 mph - N/A   Overcast
10:16 AM 39.2 °F 35.0 °F 32.0 °F 75% 30.13 in 10.0 mi NNE 5.8 mph - N/A   Overcast
10:53 AM 39.9 °F - 32.0 °F 73% 30.14 in 10.0 mi Calm Calm - N/A   Overcast
11:34 AM 42.8 °F 38.6 °F 33.8 °F 70% 30.14 in 10.0 mi WNW 6.9 mph - N/A   Overcast
11:53 AM 42.1 °F 38.4 °F 33.1 °F 70% 30.15 in 10.0 mi NW 5.8 mph - N/A   Overcast
1:53 PM 46.0 °F 43.1 °F 30.0 °F 54% 30.13 in 10.0 mi WNW 5.8 mph - N/A   Mostly Cloudy
2:53 PM 48.0 °F - 28.0 °F 46% 30.12 in 10.0 mi NNW 11.5 mph - N/A   Mostly Cloudy
3:53 PM 48.9 °F - 28.0 °F 44% 30.12 in 10.0 mi NW 8.1 mph - N/A   Mostly Cloudy
4:53 PM 50.0 °F - 27.0 °F 41% 30.11 in 10.0 mi NW 12.7 mph - N/A   Clear
5:53 PM 48.0 °F - 28.9 °F 48% 30.12 in 10.0 mi NNW 8.1 mph - N/A   Clear
6:53 PM 42.1 °F - 28.9 °F 60% 30.16 in 10.0 mi Calm Calm - N/A   Clear
7:53 PM 39.9 °F - 28.9 °F 65% 30.19 in 10.0 mi Calm Calm - N/A   Clear
8:53 PM 35.1 °F - 28.0 °F 76% 30.22 in 10.0 mi Calm Calm - N/A   Clear
9:53 PM 37.0 °F - 28.9 °F 73% 30.24 in 10.0 mi Calm Calm - N/A   Clear
10:53 PM 30.0 °F 25.2 °F 27.0 °F 88% 30.26 in 10.0 mi ENE 4.6 mph - N/A   Clear
11:53 PM 30.0 °F 25.2 °F 27.0 °F 88% 30.24 in 10.0 mi East 4.6 mph - N/A   Clear